www.pogodaiklimat.ru

Погода и климат >> Архив погоды >> Россия >> Якутия >> Оленек


ПОГОДА в Оленеке

АРХИВ ПОГОДЫ в Оленеке

Время (UTC), дата Ветер
(напр.,м/с)
 
Видим.   Явления Облачность Т
(С)
Тd
(С)
f
(%)
Тe
(С)
Тes
(С)
Комфортность P
(гПа)
Po
(гПа)
Тmin
(С)
Tmax
(С)
R
(мм)
R24
(мм)
S
(см)
06 17.06 С 6-11
{12}
н/о н/о +23.4 +3.0 26 +23 +23 комфорт 1010.3 985.2
09 17.06 С 6
{11}
н/о н/о +24.0 +2.0 24 +23 +23 комфорт 1009.0 984.0
12 17.06 С 4
{10}
н/о н/о +23.4 +2.1 25 +23 +23 комфорт 1008.2 983.1 +24.4
15 17.06 СВ 2 н/о н/о +19.2 +4.0 37 +20 +20 1008.0 982.6
18 17.06 штиль 0 н/о н/о +16.4 +4.5 45 +16 +16 1007.9 982.2
21 17.06 З 1 н/о н/о +12.7 +7.9 73 +13 +13 1007.5 981.6
00 18.06 З 1 50 км 10/4 1500 м
[Cb cap Ac trans Ci sp]
+18.9 +8.8 52 +21 +23 комфорт 1006.1 980.8 +12.6
03 18.06 СВ 7-12
{15}
10 км гроза, ливневой дождь 10/5 1000 м
[Cb cap As op]
+18.0 +9.3 57 +17 +18 1006.7 981.2
06 18.06 Ю 2
{11}
50 км 10/4 1000 м
[Cb cap Ac trans Ci sp]
+21.6 +11.1 51 +23 +27 комфорт 1004.2 979.1
09 18.06 З 2 10 км слабый ливневой дождь {гроза} 10/5 600 м
[Cb cap Cs]
+20.6 +11.9 57 +23 +25 комфорт 1003.9 978.7
12 18.06 В 2 н/о н/о +21.2 +12.8 59 +23 +23 комфорт 1003.8 978.7 +24.0
15 18.06 СВ 2 н/о н/о +17.6 +6.0 46 +18 +18 1003.5 978.1
18 18.06 СВ 2 н/о н/о +14.9 +6.2 56 +15 +15 1002.7 977.1
21 18.06 С 2
{10}
н/о н/о +11.3 +7.0 75 +10 +10 1003.9 977.9
00 19.06 С 5
{11}
50 км 8/5 1000 м
[Cb cap Ci sp]
+13.3 +6.4 63 +11 +13 1004.4 978.6 +11.2
03 19.06 СЗ 4 50 км 8/5 600 м
[Cb cap Ac As]
+13.0 +5.0 58 +11 +13 1004.9 979.0 +10.4
06 19.06 СЗ 5
{10}
50 км 9/9 600 м
[Cb cap]
+13.1 +4.6 56 +11 +12 1005.7 979.8
09 19.06 С 4 50 км в посл. час ливневой дождь 8/8 900 м
[Cb cap]
+13.9 +4.3 52 +13 +13 1005.8 980.0
12 19.06 СВ 2 50 км {ливн. осадки} 9/9 840 м
[Cb cap]
+13.4 +5.3 58 +13 +13 1006.1 980.3 +14.6
15 19.06 СВ 2 н/о н/о +11.8 +6.2 69 +11 +11 1006.3 980.3
18 19.06 С 4 н/о н/о +10.4 +6.2 75 +8 +8 1006.2 980.1
21 19.06 СЗ 2 н/о н/о +9.7 +7.3 85 +8 +8 1007.1 980.9
00 20.06 С 2 50 км 10/8 300 м
[Sc As op]
+10.5 +8.0 84 +9 +9 1007.1 981.0 +9.2
03 20.06 В 2 50 км 10/8 700 м
[Sc As op]
+12.9 +7.4 69 +12 +13 1007.0 981.1
06 20.06 В 4 50 км 5/5 1000 м
[Sc]
+17.2 +6.5 49 +17 +20 1006.0 980.5
09 20.06 В 3 50 км 4/4 1000 м
[Sc]
+18.5 +7.0 47 +19 +22 1005.9 980.5
12 20.06 ЮЗ 2 н/о н/о +19.1 +6.9 45 +20 +20 1005.6 980.2 +19.5
15 20.06 СЗ 1 н/о н/о +16.7 +7.8 56 +18 +18 1005.9 980.4
18 20.06 СЗ 2 н/о н/о +13.8 +7.1 64 +13 +13 1006.4 980.6
21 20.06 СЗ 2 н/о н/о +12.3 +7.5 72 +11 +11 1006.4 980.4
00 21.06 ЮВ 2 50 км 5/0
[Ci sp]
+18.8 +9.5 55 +20 +25 1005.7 980.3 +11.7
03 21.06 ЮВ 4 50 км 8/1 1500 м
[Cu hum Ci sp]
+22.2 +8.6 42 +24 +29 комфорт 1004.6 979.5
06 21.06 ЮВ 3 50 км 8/5 600 м
[Cb cap Ci sp]
+23.6 +8.2 37 +24 +28 комфорт 1002.9 978.1
09 21.06 ЮВ 5 50 км 8/4 600 м
[Cb cap Ci sp]
+25.2 +5.8 29 +25 +26 комфорт 1002.3 977.5
12 21.06 Ю 3 н/о н/о +24.1 +6.1 31 +24 +24 комфорт 1002.1 977.3 +25.5
15 21.06 В 3 н/о н/о +19.8 +7.7 46 +21 +21 комфорт 1002.3 977.2
18 21.06 В 3 н/о н/о +16.2 +7.2 55 +16 +16 1003.2 977.7
21 21.06 В 2 н/о н/о +17.3 +7.8 54 +18 +18 1003.0 977.6
00 22.06 В 2 50 км 10/0
[Ci sp]
+23.0 +9.5 42 +25 +29 комфорт 1002.6 977.7 +15.0
03 22.06 Ю 4 50 км 10/4 600 м
[Sc Ci sp]
+25.4 +7.3 32 +25 +29 комфорт 1002.3 977.6
06 22.06 Ю 3
{12}
50 км 8/5 600 м
[Cu hum Ci fib]
+26.3 +7.0 29 +26 +30 жарко 1002.0 977.3
09 22.06 Ю 6
{10}
50 км 8/5 600 м
[Cu hum Ci fib]
+27.5 +6.8 27 +27 +28 жарко 1001.9 977.3
12 22.06 Ю 3
{10}
50 км 6/4 600 м
[Cu hum Ci fib]
+26.4 +7.1 29 +26 +27 жарко 1002.6 978.0 +27.6
15 22.06 СЗ 1 н/о н/о +20.7 +10.4 52 +24 +24 комфорт 1004.4 979.3
18 22.06 В 2 н/о н/о +18.0 +10.6 62 +19 +19 1005.7 980.3
21 22.06 В 1 н/о н/о +16.5 +11.7 73 +17 +17 1006.7 981.1
00 23.06 ЮВ 1 н/о н/о +23.1 +11.5 48 +25 +25 комфорт 1007.0 982.0 +15.6
03 23.06 Ю 4 н/о н/о +26.1 +9.6 35 +27 +27 жарко 1006.9 982.1
06 23.06 Ю 3 н/о н/о +27.6 +7.7 28 +27 +27 жарко 1006.4 981.8
09 23.06 ЮЗ 4 н/о н/о +27.6 +8.4 30 +27 +27 жарко 1005.9 981.3
12 23.06 ЮЗ 2 н/о н/о +25.3 +8.5 34 +26 +26 жарко 1006.3 981.5 +27.9
15 23.06 В 2 н/о н/о +20.7 +10.7 53 +23 +23 комфорт 1007.3 982.1
18 23.06 СЗ 1 н/о н/о +19.3 +10.6 57 +21 +21 комфорт 1007.4 982.1
21 23.06 В 1 н/о н/о +16.7 +11.3 70 +18 +18 1008.3 982.7
00 24.06 штиль 0 н/о н/о +19.2 +12.9 67 +20 +20 1008.3 982.9

 

Местоположение метеостанции Оленек (Якутия, Россия): широта 68.50 долгота 112.40 высота над уровнем моря 220 м.

В архиве по умолчанию представлена погода в Оленеке за последнюю неделю. Архивные данные за месяц целиком и за предыдущие месяцы, начиная с января 2011 года, Вы можете получить, выбрав интересующий диапазон дат из раскрывающегося списка и нажав кнопку "Ввод!".


*Определитесь, кто Вы:
робот инопланетянин человек

Внимание! Время в таблицах - всемирное. Для получения местного времени необходимо прибавить поправку, которая в Оленеке равна 9 ч.

Смотрите также архив погоды в соседних городах и на ближайших метеорологических станциях:

Погода в Джалинде (Якутия, Россия) (191 км)
Погода в Полярном (Якутия, Россия) (197 км)
Погода в Ярольине (Якутия, Россия) (224 км)
Погода в Сухане (Якутия, Россия) (240 км)
Погода в Шелагонцах (Якутия, Россия) (262 км)
Погода в Айхале (Якутия, Россия) (289 км)
Погода в Эйке (Якутия, Россия) (349 км)
Погода в Саскылахе (Якутия, Россия) (391 км)
Погода в Хабардино (Якутия, Россия) (434 км)
Погода в Джарджане (Якутия, Россия) (470 км)

Пояснения к столбцам:

Ветер - указаны скорость ветра в м/с - средняя за 10 мин, порывы в срок и между сроками (в фигурных скобках) и направление, откуда дует ветер: С - северный, СВ - северо-восточный, В - восточный, ЮВ - юго-восточный, Ю - южный, ЮЗ - юго-западный, З - западный, СЗ - северо-западный.
Видимость - горизонтальная дальность видимости в метрах или километрах. При видимости от 1 до 10 км при отсутствии осадков обычно наблюдается дымка, при ухудшении видимости до 1 км и менее - туман. В сухую погоду видимость может ухудшаться дымом, пылью или мглою.
Явления - указаны атмосферные явления, наблюдавшиеся в срок или в последний час перед сроком; фигурными скобками обозначены явления, наблюдавшиеся между сроками (за 1-3 часа до срока); квадратными скобками обозначены град или гололедные отложения с указанием их диаметра в мм.
Облачность - указаны через наклонную черту общая и нижняя облачность в баллах и высота нижней границы облаков в метрах; квадратными скобками обозначены формы облаков: Ci - перистые, Cs - перисто-слоистые, Cc - перисто-кучевые, Ac - высококучевые, As - высокослоистые, Sc - слоисто-кучевые, Ns - слоисто-дождевые, Cu - кучевые, Cb - кучево-дождевые. Подробнее классификацию облаков см. в Атласе облаков (PDF).
T - Температура воздуха - температура, измеренная на высоте 2 м над землей.
Td - Температура точки росы - температура, при понижении до которой содержащийся в воздухе водяной пар достигнет насыщения.
f - Относительная влажность воздуха - влажноcть воздуха, измеренная на высоте 2 м над землей.
Te - Эффективная температура - температура, которую ощущает одетый по сезону человек в тени. Характеристика душности погоды. При расчете учитывается влияние влажности воздуха и скорости ветра на теплоощущения человека.
Tes - Эффективная температура на солнце - температура, которую ощущает человек, с поправкой на солнечный нагрев. Характеристика знойности погоды. Зависит от высоты солнца над горизонтом, облачности и скорости ветра. Ночью, в пасмурную погоду, а также при ветре 12 м/с и более поправка равна нулю.
P - Атмосферное давление - приведенное к уровню моря атмосферное давление.
Po - Атмосферное давление - измеренное на уровне метеостанции атмосферное давление.
Tmin - Минимальная температура - минимум температуры воздуха на высоте 2 м над землей.
Tmax - Максимальная температура - максимум температуры воздуха на высоте 2 м над землей.
R - Количество осадков - Количество выпавших осадков за период времени, мм. При наведении курсора мыши на число - период времени, за который выпало указанное количество осадков.
R24 - Количество осадков - Количество выпавших осадков за 24 часа, мм.
S - Снежный покров - Высота снежного покрова, см. При наведении курсора мыши на число - состояние снежного покрова и степень покрытия местности в баллах.